sat.trackr.live / text

‹ back to catalog

STARLINK-30407

NORAD 57823 · 2023-138R

PAYLOAD ACTIVE UNKNOWN

§ Identity

Operator
Country
US
Launch date
2023-09-09
Launch site
AFETR
Launch vehicle
Mass (kg)
RCS (m²)

Purposes: comms

External: N2YO · Heavens-Above · Gunter

§ Orbital elements

Epoch: 2026-09-20T21:56:39.449472Z

Period
94.27 min
Inclination
43.0010°
Eccentricity
0.0001105
Mean motion
15.27581413 rev/d
Perigee alt
482.3 km
Apogee alt
483.8 km
Semi-major
6,861.2 km
B*
9.0690e-6
RAAN
106.2546°
Arg perigee
266.0114°
Mean anomaly
94.0611°
Rev number
16,982

§ Raw data

STARLINK-304071 57823U 23138R   26263.91434548 -.00000012  00000+0  90690-5 0  99912 57823  43.0010 106.2546 0001105 266.0114  94.0611 15.27581413169820

JSON: /api/v1/satellites/57823 · /tle

For live sub-satellite position, see the globe view (requires WebGL).

§ Visibility from observer

Set your observer location to see the next 7 days of passes ≥ 10°. The values pass through the URL so the page stays shareable.

No JS? Fill the form by hand. The geolocation button needs JavaScript.